Precipitable_Water
0.29 0.29 0.27 0.27 0.27 0.25 0.24 0.23 0.20 0.15 0.14 0.17 0.17 0.21 0.22 0.23 0.23 0.23 0.24 0.24 0.25 0.26 0.27 0.28 0.28 0.29 0.30 0.32 0.33 0.34 0.34 0.37 0.39 0.40 0.39 0.40 0.41 0.45
0.29 0.27 0.27 0.26 0.25 0.25 0.24 0.24 0.22 0.19 0.14 0.16 0.17 0.20 0.22 0.22 0.23 0.24 0.24 0.25 0.24 0.25 0.26 0.27 0.27 0.28 0.29 0.31 0.31 0.31 0.32 0.32 0.34 0.36 0.35 0.35 0.36 0.38
0.28 0.26 0.25 0.25 0.24 0.24 0.23 0.22 0.20 0.19 0.16 0.15 0.19 0.20 0.20 0.21 0.22 0.24 0.26 0.26 0.25 0.23 0.24 0.27 0.30 0.31 0.32 0.33 0.34 0.35 0.35 0.34 0.33 0.34 0.35 0.37 0.39 0.42
0.26 0.26 0.25 0.25 0.23 0.22 0.20 0.19 0.20 0.21 0.19 0.16 0.17 0.18 0.19 0.21 0.23 0.24 0.23 0.22 0.23 0.26 0.28 0.30 0.32 0.32 0.33 0.34 0.34 0.35 0.35 0.35 0.35 0.35 0.34 0.34 0.35 0.38
0.27 0.26 0.24 0.22 0.21 0.20 0.20 0.21 0.21 0.22 0.22 0.20 0.17 0.19 0.21 0.24 0.22 0.20 0.20 0.25 0.27 0.28 0.30 0.31 0.32 0.34 0.35 0.35 0.36 0.35 0.35 0.35 0.36 0.34 0.34 0.35 0.33 0.34
0.27 0.26 0.23 0.22 0.21 0.21 0.23 0.23 0.23 0.21 0.20 0.20 0.20 0.22 0.22 0.20 0.19 0.22 0.24 0.27 0.28 0.31 0.31 0.33 0.33 0.33 0.33 0.33 0.33 0.33 0.34 0.34 0.34 0.33 0.33 0.34 0.35 0.33
0.26 0.24 0.23 0.23 0.24 0.24 0.23 0.22 0.21 0.21 0.21 0.21 0.22 0.20 0.17 0.19 0.23 0.25 0.26 0.28 0.30 0.30 0.29 0.30 0.31 0.31 0.32 0.33 0.33 0.33 0.33 0.34 0.35 0.36 0.36 0.34 0.34 0.34
0.23 0.22 0.22 0.23 0.22 0.23 0.22 0.23 0.24 0.22 0.23 0.22 0.20 0.17 0.20 0.24 0.26 0.28 0.29 0.27 0.24 0.30 0.29 0.28 0.31 0.31 0.32 0.32 0.32 0.33 0.34 0.35 0.35 0.36 0.37 0.37 0.36 0.35
0.22 0.21 0.21 0.22 0.21 0.21 0.22 0.24 0.25 0.28 0.25 0.22 0.19 0.23 0.25 0.27 0.31 0.30 0.28 0.28 0.26 0.28 0.29 0.26 0.30 0.29 0.31 0.31 0.32 0.33 0.34 0.34 0.35 0.36 0.37 0.37 0.37 0.36
0.22 0.21 0.21 0.20 0.21 0.22 0.22 0.24 0.24 0.22 0.21 0.23 0.28 0.29 0.32 0.34 0.31 0.31 0.29 0.28 0.28 0.28 0.29 0.25 0.30 0.28 0.31 0.32 0.32 0.33 0.34 0.35 0.36 0.36 0.36 0.36 0.37 0.37
0.21 0.21 0.21 0.20 0.21 0.23 0.24 0.22 0.20 0.20 0.23 0.30 0.33 0.33 0.31 0.32 0.32 0.30 0.27 0.25 0.21 0.23 0.28 0.29 0.29 0.28 0.30 0.31 0.33 0.35 0.37 0.38 0.39 0.39 0.39 0.39 0.39 0.38
0.21 0.20 0.20 0.21 0.21 0.24 0.22 0.21 0.18 0.21 0.29 0.32 0.28 0.29 0.30 0.30 0.31 0.30 0.28 0.23 0.22 0.20 0.28 0.29 0.29 0.28 0.25 0.31 0.33 0.35 0.37 0.39 0.40 0.40 0.41 0.41 0.42 0.41
0.19 0.18 0.20 0.21 0.24 0.22 0.22 0.20 0.23 0.31 0.30 0.28 0.28 0.29 0.29 0.29 0.29 0.29 0.28 0.27 0.23 0.23 0.31 0.33 0.30 0.29 0.30 0.29 0.33 0.36 0.38 0.38 0.39 0.40 0.41 0.41 0.42 0.41
0.18 0.20 0.20 0.22 0.20 0.20 0.20 0.25 0.31 0.30 0.28 0.28 0.27 0.26 0.26 0.27 0.28 0.28 0.29 0.29 0.30 0.28 0.34 0.36 0.31 0.31 0.31 0.30 0.30 0.35 0.38 0.41 0.39 0.39 0.40 0.41 0.42 0.42
0.21 0.20 0.21 0.19 0.18 0.19 0.25 0.30 0.29 0.27 0.27 0.26 0.25 0.25 0.27 0.28 0.28 0.28 0.29 0.29 0.30 0.31 0.35 0.38 0.36 0.35 0.35 0.33 0.32 0.34 0.35 0.39 0.41 0.39 0.39 0.38 0.38 0.39
0.20 0.20 0.18 0.17 0.19 0.24 0.28 0.26 0.26 0.27 0.27 0.26 0.25 0.27 0.29 0.28 0.26 0.28 0.26 0.27 0.26 0.27 0.34 0.39 0.38 0.38 0.35 0.37 0.37 0.36 0.39 0.35 0.40 0.41 0.40 0.40 0.38 0.37
0.19 0.17 0.15 0.17 0.22 0.25 0.24 0.26 0.27 0.27 0.27 0.27 0.27 0.27 0.27 0.27 0.25 0.27 0.27 0.26 0.24 0.25 0.30 0.36 0.39 0.40 0.39 0.38 0.36 0.38 0.38 0.40 0.42 0.40 0.37 0.34 0.32 0.32
0.16 0.14 0.16 0.21 0.23 0.23 0.24 0.25 0.27 0.27 0.27 0.27 0.27 0.27 0.27 0.25 0.25 0.26 0.27 0.26 0.24 0.26 0.31 0.35 0.35 0.35 0.35 0.36 0.41 0.39 0.39 0.41 0.42 0.40 0.37 0.31 0.29 0.30
0.14 0.16 0.20 0.22 0.23 0.25 0.25 0.25 0.25 0.27 0.28 0.27 0.27 0.27 0.27 0.26 0.26 0.26 0.26 0.26 0.26 0.27 0.32 0.35 0.35 0.33 0.30 0.28 0.36 0.43 0.39 0.41 0.42 0.39 0.39 0.35 0.31 0.29
0.17 0.19 0.21 0.23 0.25 0.25 0.25 0.26 0.26 0.27 0.27 0.27 0.28 0.28 0.28 0.27 0.26 0.26 0.27 0.26 0.26 0.28 0.31 0.34 0.34 0.34 0.33 0.32 0.33 0.39 0.45 0.41 0.41 0.39 0.37 0.40 0.39 0.40
0.19 0.21 0.23 0.24 0.25 0.25 0.26 0.27 0.28 0.28 0.29 0.29 0.29 0.28 0.28 0.28 0.27 0.28 0.27 0.28 0.27 0.28 0.30 0.32 0.34 0.39 0.39 0.40 0.36 0.37 0.41 0.45 0.44 0.41 0.40 0.39 0.35 0.36
0.21 0.22 0.24 0.25 0.25 0.26 0.27 0.28 0.28 0.29 0.29 0.29 0.29 0.29 0.30 0.30 0.29 0.28 0.28 0.27 0.27 0.29 0.32 0.35 0.35 0.36 0.36 0.35 0.34 0.36 0.38 0.41 0.44 0.45 0.45 0.43 0.36 0.32
0.22 0.24 0.25 0.26 0.27 0.28 0.29 0.29 0.29 0.29 0.29 0.29 0.30 0.30 0.31 0.30 0.30 0.30 0.30 0.29 0.29 0.29 0.32 0.33 0.34 0.35 0.34 0.34 0.36 0.37 0.38 0.38 0.39 0.39 0.42 0.46 0.46 0.46
Wind_Speed
37 38 39 40 42 44 45 47 49 53 55 55 54 61 63 64 65 67 67 67 67 67 67 67 66 65 64 63 62 62 62 63 64 67 71 74 75 75
38 39 41 42 44 45 47 49 51 54 58 60 62 64 65 66 67 66 66 65 64 63 61 59 58 56 54 53 54 54 54 56 57 59 61 65 69 72
40 41 43 44 46 47 49 51 53 56 61 64 65 66 66 66 64 63 62 59 56 53 50 48 47 46 46 46 47 47 47 48 48 50 52 54 56 59
41 43 44 46 48 50 51 53 56 58 61 66 66 65 64 62 60 57 54 50 46 44 43 42 40 40 40 40 41 41 42 44 46 46 46 47 49 51
43 44 46 48 50 51 53 56 58 60 61 63 65 63 59 54 52 49 43 41 39 38 37 37 37 38 39 39 40 40 41 41 42 44 45 45 45 47
44 46 48 50 52 54 56 58 60 62 62 62 61 55 51 48 43 40 38 34 34 34 35 36 36 37 38 39 39 40 40 39 39 39 40 42 42 42
45 47 49 51 54 56 57 59 61 60 60 58 51 49 44 38 37 34 32 34 34 36 34 34 35 37 38 39 40 40 39 38 38 38 38 38 40 41
47 49 51 53 55 57 59 60 59 58 56 50 47 41 37 36 32 32 32 34 33 34 34 36 37 37 38 38 38 37 37 36 36 37 37 37 38 39
49 51 53 54 57 58 59 58 57 51 49 44 39 35 35 32 32 32 33 33 34 36 36 35 36 37 37 36 35 34 32 31 32 33 34 35 36 37
50 53 54 56 57 59 58 56 51 46 40 35 34 34 32 31 33 33 33 34 34 34 33 34 36 35 34 32 31 29 28 27 28 29 30 31 32 34
52 53 55 57 58 58 56 52 45 38 34 32 32 30 31 30 31 31 31 32 32 31 32 32 32 32 32 29 25 26 27 28 29 29 29 30 30 30
53 55 56 57 56 54 51 44 37 32 31 28 29 28 28 29 31 30 31 31 32 29 29 29 31 28 24 24 26 30 30 30 30 30 30 31 31 30
55 56 55 55 53 50 42 35 30 30 29 28 27 28 29 29 30 30 30 31 31 29 31 29 27 26 24 27 30 31 31 30 29 28 27 27 27 29
55 54 53 52 48 41 34 29 29 28 27 27 28 29 29 29 30 30 30 30 30 30 29 27 24 24 25 28 30 30 31 31 28 25 25 26 27 30
53 52 50 46 39 32 28 28 27 27 27 27 27 28 29 30 30 29 29 29 29 27 25 23 22 23 24 26 28 30 31 29 26 26 26 26 26 27
52 48 43 37 30 28 27 26 27 27 27 28 28 29 29 29 28 28 27 27 26 25 22 20 20 21 23 25 26 28 29 27 28 27 27 25 23 23
48 40 34 28 27 26 26 27 27 28 28 29 28 28 28 28 27 27 26 25 23 22 21 19 19 20 20 23 24 24 26 27 26 27 26 25 22 20
38 31 27 26 25 26 27 28 29 29 29 28 28 27 27 26 25 25 24 23 22 21 19 18 18 18 20 21 21 22 24 25 25 25 26 24 23 22
29 25 24 24 25 27 28 29 29 29 28 27 26 25 24 24 24 23 23 22 20 19 17 16 15 16 17 19 19 21 22 23 23 24 24 24 24 23
22 23 23 24 26 27 28 28 28 27 25 24 23 22 22 22 22 22 22 20 19 18 15 14 13 14 15 17 18 19 21 21 21 21 22 21 23 23
21 22 23 25 26 27 27 26 25 25 24 23 22 21 21 22 22 22 21 20 18 15 13 13 12 14 13 15 15 17 18 19 19 20 21 19 20 21
20 22 23 24 25 26 25 25 25 24 23 22 22 21 22 23 22 20 19 18 16 13 12 12 11 11 11 12 14 16 15 16 17 18 20 22 20 19
20 22 23 24 25 25 25 24 25 24 23 23 22 23 23 22 21 19 18 17 15 12 11 10 9 8 9 11 13 15 15 14 14 15 17 19 21 21
Wind_Direction
307 307 307 306 306 305 305 305 305 306 306 307 306 305 305 304 303 301 299 297 296 295 292 290 289 287 285 283 280 279 276 274 270 267 265 263 261 259
308 308 308 307 307 307 306 305 304 304 304 307 307 307 306 305 303 302 300 299 297 296 294 293 291 289 287 284 282 281 278 275 272 270 268 264 260 257
309 309 309 309 308 308 307 306 306 305 305 307 307 307 306 305 304 303 302 301 300 298 297 296 294 293 290 288 285 283 280 278 275 273 270 266 262 257
310 310 310 310 309 309 309 308 307 307 307 307 308 308 307 306 305 304 304 302 302 301 300 300 299 297 295 293 290 287 284 280 276 274 272 269 264 260
310 310 311 311 310 310 310 309 309 309 309 308 309 309 308 308 307 306 306 305 304 304 304 304 302 300 298 295 293 290 287 284 280 275 271 269 266 262
311 311 311 311 312 312 311 310 311 310 310 310 310 310 310 310 309 308 308 308 308 308 307 306 305 304 302 299 296 293 290 286 282 279 274 269 266 263
312 312 312 313 312 312 312 312 312 311 311 311 310 310 310 311 311 311 309 311 310 310 310 310 308 307 305 303 299 296 291 287 282 279 276 272 265 260
313 313 313 313 313 313 313 313 312 312 311 311 310 309 310 311 311 311 311 312 312 314 313 311 311 310 308 306 304 299 294 289 284 279 276 273 268 262
314 314 314 314 314 314 314 314 313 311 310 309 309 308 310 309 310 312 312 312 312 313 314 313 315 313 313 312 309 304 299 294 288 283 279 274 269 264
315 315 315 315 316 316 315 315 314 312 311 310 308 309 308 308 310 311 312 313 313 315 315 315 319 317 319 318 315 312 308 302 297 291 284 278 272 265
316 316 316 316 317 317 316 316 314 312 312 311 310 311 310 310 311 313 314 316 317 318 320 318 322 322 322 322 323 321 316 309 303 296 288 282 276 269
318 318 317 318 318 318 317 316 314 314 314 314 314 314 314 314 314 313 315 316 318 320 324 323 324 328 329 330 328 324 320 314 308 300 292 285 277 269
319 319 318 319 318 318 317 316 314 315 315 315 315 315 315 315 316 315 315 314 316 315 318 322 323 324 324 325 329 329 326 322 317 308 302 292 282 271
319 319 319 319 319 319 318 317 317 317 316 315 315 316 316 316 317 316 316 315 314 313 317 318 319 322 325 327 328 334 332 330 326 318 311 300 289 280
320 319 320 320 320 320 320 320 319 318 317 317 317 317 317 317 317 316 317 317 316 316 317 318 319 321 325 328 330 335 338 339 336 332 324 313 302 290
321 320 321 321 321 321 322 322 322 321 319 318 318 317 318 319 319 319 319 320 320 319 321 321 323 325 330 333 335 338 343 345 342 341 338 333 323 310
321 321 322 324 325 325 325 324 324 322 321 320 319 319 320 321 321 322 322 322 322 321 322 324 328 330 332 335 339 344 347 351 354 356 357 356 360 356
323 323 325 326 327 327 327 326 324 323 321 320 320 320 321 322 323 324 324 324 323 323 322 325 330 335 340 348 350 351 356 360 3 7 11 15 20 25
324 326 328 329 329 329 328 327 326 325 324 322 323 324 325 326 327 327 327 326 326 326 325 328 332 338 343 348 355 359 360 5 9 15 21 25 31 36
328 330 331 331 331 331 331 332 331 332 331 329 329 330 330 330 331 330 330 328 326 329 328 331 335 340 344 349 352 358 4 10 16 19 24 31 36 45
332 333 334 333 334 335 336 337 338 339 338 337 336 335 335 335 334 333 333 331 330 330 332 335 335 338 344 350 358 3 8 16 21 26 31 37 40 47
336 337 337 338 338 338 339 339 339 339 340 340 338 337 337 336 335 335 337 336 335 332 332 334 338 346 354 3 4 7 12 18 28 34 40 43 45 48
340 341 342 342 342 342 341 340 339 338 338 337 337 336 337 336 336 335 337 340 339 337 340 343 347 354 3 10 12 15 14 25 33 38 44 44 48 53